LBSFLBPD

Guest
Details From LBSF - Sofia
To LBPD - Plovdiv
Flight Number -
Tags generated
Created
Modified
Stats Distance 74 nm / 137 km
Max Altitude 9,500 ft / 2,896 m
Waypoints 4
Social Downloads 5
Likes 0
Share VATSIM

Download

Looking for another format? Having issues loading an existing format? Contact us
Advertisement - Login to hide

Notes

Basic altitude profile: - Ascent Rate: 2500ft/min - Ascent Speed: 250kts - Cruise Altitude: 35000ft - Cruise Speed: 420kts - Descent Rate: 1500ft/min - Descent Speed: 250kts Options: - Use NATs: yes - Use PACOTS: yes - Use low airways: yes - Use high airways: yes

Route

LBSF LARAT A4 RUMEN LBPD

ID Type Via Altitude Latitude Longitude Leg Dist Tot Dist Heading (true) Name
O LBSF APT - 0 ft / 0 m 42.69713˚ 23.41672˚ - 0 nm - Sofia
LARAT FIX - 8,300 ft / 2,530 m 42.50167˚ 23.87111˚ 23 nm 23 nm 120° / 120° -
RUMEN FIX A4 (AWY-LO) 9,500 ft / 2,896 m 42.30500˚ 24.31333˚ 22 nm 46 nm 121° / 121° -
O LBPD APT - 0 ft / 0 m 42.06786˚ 24.85081˚ 27 nm 73 nm 121° / 121° Plovdiv

Altitude Profile

Advertisement - Login to hide

LBSF

Details ICAO LBSF (SOF)
Name Sofia
Region Bulgaria
Timezone Europe/Sofia (UTC+2.0)
Stats Elevation 1,741 ft / 531 m (AMSL)
Location 42.697130° 23.416722°
Runways 1
Magnetic Variation 4.935° E

METAR

LBSF 170100Z 28006KT 9999 -RA SCT025 BKN031 OVC043 04/04 Q1009 NOSIG

Decode

TAF

TAF LBSF 162300Z 1700/1724 30012KT 6000 RA SCT007 BKN025 OVC040 BECMG 1704/1706 4000 SNRA BKN007 OVC020 TEMPO 1708/1717 4000 SN BKN007 OVC015

Decode

Departure Runways

ID Width Length Bearing (true) Bearing (mag) Surface Threshold Offset Overrun Length
09 148 ft / 45 m 11,801 ft / 3,597 m 93.99° 89.06° Asphalt 984 ft / 300 m 525 ft / 160 m
27 148 ft / 45 m 11,801 ft / 3,597 m 274.02° 269.09° Asphalt 0 ft / 0 m 525 ft / 160 m

LBPD

Details ICAO LBPD (PDV)
Name Plovdiv
Region Bulgaria
Timezone Europe/Sofia (UTC+2.0)
Stats Elevation 597 ft / 182 m (AMSL)
Location 42.067856° 24.850814°
Runways 1
Magnetic Variation 5.067° E

METAR

LBPD 170100Z AUTO 31008KT 9999 OVC013/// 10/10 Q1008

Decode

TAF

TAF LBPD 162300Z 1700/1724 27012KT 9999 SCT040 PROB40 TEMPO 1700/1708 5000 RA SCT020 BKN033 TEMPO 1708/1718 4000 RA SCT015 OVC025 BECMG 1712/1714 14010KT BECMG 1720/1722 25012KT

Decode

Destination Runways

ID Width Length Bearing (true) Bearing (mag) Surface Threshold Offset Overrun Length
12 164 ft / 50 m 8,200 ft / 2,500 m 127.33° 122.26° Asphalt 0 ft / 0 m 197 ft / 60 m
30 164 ft / 50 m 8,200 ft / 2,500 m 307.35° 302.28° Asphalt 0 ft / 0 m 295 ft / 90 m

Approach Navaids

Runway Type Ident Frequency Range Bearing (true) Bearing (mag) Slope Elevation
30 Localiser IPD 109.90 MHz 18 nm / 33 km 307.33° 302.26° - 597 ft / 182 m (AMSL)
30 Glidescope IPD 109.90 MHz 10 nm / 19 km 307.34° 302.27° 3.00° 597 ft / 182 m (AMSL)

Popular Alternatives